AirNav   ATP
 
 916 users online  

PA74 Gusler Airport
Elizabethville/Halifax, Pennsylvania, USA


FAA INFORMATION EFFECTIVE 14 SEPTEMBER 2017

Location

FAA Identifier: PA74
Lat/Long: 40-27-55.3090N / 076-50-23.8990W
40-27.921817N / 076-50.398317W
40.4653636 / -76.8399719
(estimated)
Elevation: 700 ft. / 213 m (estimated)
Variation: 10W (1985)
From city: 5 miles S of central business district of the associated city
Time zone: UTC -4 (UTC -5 during Standard Time)
Zip code: 17032

Airport Operations

Airport use: Private use. Permission required prior to landing
Activation date: 10/1964
Control tower: no
ARTCC: NEW YORK CENTER
FSS: WILLIAMSPORT FLIGHT SERVICE STATION
Attendance: UNATNDD
Wind indicator: yes
Segmented circle: no

Airport Communications

WX ASOS at MUI (13 nm E): 124.175 (717-861-6493)
WX ASOS at CXY (15 nm S): PHONE 717-770-0880
WX ASOS at MDT (17 nm S): PHONE 717-944-1372

Nearby radio navigation aids

VOR radial/distance  VOR name  Freq  Var
RAVr255/12.2RAVINE VORTAC114.6011W
HARr057/14.3HARRISBURG VORTAC112.5010W
SEGr182/19.6SELINSGROVE VORTAC110.4008W
LRPr319/32.6LANCASTER VOR/DME117.3009W
MIPr202/34.4MILTON VORTAC109.2009W

 
NDB name  Hdg/Dist  Freq  Var  ID
BELLGROVE288/13.232810WBZJ -... --.. .---
ENOLA023/13.420411WMD -- -..

Airport Services

Fuel available: 100LL
Airframe service: NONE
Powerplant service: NONE

Runway Information

Runway E/W

Dimensions: 2200 x 100 ft. / 671 x 30 m
Surface: turf
RUNWAY E  RUNWAY W
Traffic pattern: leftleft

Airport Ownership and Management from official FAA records

Ownership: Privately-owned
Owner: GRACE GUSLER
1722 POWELLS VALLEY ROAD
HALIFAX, PA 17032
Phone 717-362-9245
Manager: GREG L. GUSLER
3245 POWELLS VALLEY ROAD
HALIFAX, PA 17032
Phone 717-362-8655

Airport Operational Statistics

Aircraft based on the field: 2
Helicopters: 2
    

Additional Remarks

IDENTIFYING LANDMARKS: CHURCH & TEE RD SW CORNER OF FLD. POND NE BNDRY ADJ TO RY. RY BEHIND LARGE BARN & SILOS.

Instrument Procedures

There are no published instrument procedures at PA74.

Some nearby airports with instrument procedures:

KMUI - Muir Army Airfield (Fort Indiantown Gap) (13 nm E)
74N - Bendigo Airport (14 nm NE)
KCXY - Capital City Airport (15 nm S)
58N - Reigle Field Airport (16 nm SE)
KMDT - Harrisburg International Airport (17 nm S)
 
Loc | Ops | Rwys | IFR | FBO | Links
Com | Nav | Svcs | Stats | Notes


 
Area around PA74 (Gusler Airport)
 
Road maps at: MapQuest Bing Google
 
Aerial photo
No photo
 
Sectional chart

 
Airport distance calculator
Flying to Gusler Airport? Find the distance to fly.

From to PA74

Sunrise and sunset
Times for 23-Sep-2017
 Local
(UTC-4)
 Zulu
(UTC)
Morning civil twilight06:3010:30
Sunrise06:5710:57
Sunset19:0323:03
Evening civil twilight19:3023:30

Current date and time
Zulu (UTC)  23-Sep-2017 20:13:52
Local (UTC-4)  23-Sep-2017 16:13:52
 
METAR
KMUI 
13nm E 
231958Z AUTO 33006KT 10SM CLR 30/13 A3006 RMK AO2 SLP179 T02980131
KCXY 
15nm S 
231956Z 34006KT 10SM CLR 31/10 A3006 RMK AO2 SLP178 T03060100
KMDT 
16nm S 
231956Z 02007KT 10SM SCT250 29/12 A3005 RMK AO2 SLP173 T02940117
KSEG 
21nm N 
231953Z AUTO 00000KT 10SM CLR 31/17 A3007 RMK AO2 SLP180 T03060167
TAF
KMDT 
16nm S 
231720Z 2318/2418 34006KT P6SM SKC
NOTAMs
Click for the latest NOTAMs
NOTAMs are issued by the DoD/FAA and will open in a separate window not controlled by AirNav.

 

 
 

Would you like to see your business listed on this page?

 If your business provides an interesting product or service to pilots, flight crews, aircraft, or users of the Gusler Airport, you should consider listing it here.  To start the listing process, click on the button below
 
Add a business
 

Other Pages about Gusler Airport

Update a link
 
Copyright © AirNav, LLC. All rights reserved. Privacy Policy  Contact